Jiaotong VDES A

operational
NORAD ID: 66913 Int'l Des: 2025-284 Owner: XYUN Country: CN
LEOCIRCULARPOLAR

Jiaotong VDES Aについて

説明を読み込み中...

リアルタイム位置

3D地球を読み込み中...

次回通過

高度履歴

Altitude vs Time

uPlot chart will show altitude changes over time

軌道要素

1 66913U 25284A 25347.65096287 .00011130 00000-0 52991-3 0 9995
2 66913 80.4042 128.6097 0012038 201.7679 158.3038 15.18989499 1264
Epoch: Dec 13, 2025 • Age: 16 hours

現在のステータス

高度 508.0 km
速度 7.62 km/s
衛星直下点 32.38°N, 97.18°E
打ち上げ日 Dec 5, 2025
運用期間 9 days
タイプ other

技術仕様

分類 Payload
質量 220.00 kg
乾燥質量 220.00 kg
総質量 220.00 kg
長さ 0.50 m
直径 0.20 m
スパン 2.00 m
形状 Box + 2 Pan
製造者 IMICAS
フェーズステータス In Orbit
所有者/国 XYUN/CN

大規模コンステレーション

Loading constellations...